N1NSI Weather Reports


Display with metric or nautical units.
time (UTC)temp
F
wind
direction
speed
MPH
gust
MPH
rain 1hr
in
rain 24hr
in
rain mn
in
humidity
%
barometer
mb
20181115000504 22 328 1.0 7.0 0.00 0.01 0.00 48 1033.2
20181115000006 22 335 1.0 4.0 0.00 0.01 0.00 48 1033.2
20181114235506 22 327 0.0 2.0 0.00 0.01 0.00 48 1033.0
20181114235005 22 321 0.0 2.0 0.00 0.01 0.00 48 1033.0
20181114234505 22 320 1.0 4.0 0.00 0.01 0.00 47 1033.0
20181114234005 22 319 1.0 7.0 0.00 0.01 0.00 47 1032.7
20181114233506 22 323 1.0 7.0 0.00 0.01 0.00 46 1032.7
20181114233006 23 325 1.0 6.0 0.00 0.01 0.00 46 1032.7
20181114232506 23 315 1.0 6.0 0.00 0.01 0.00 45 1032.6
20181114232005 23 308 1.0 4.0 0.00 0.01 0.00 48 1032.6
20181114231505 23 315 0.0 4.0 0.00 0.01 0.00 47 1032.6
20181114231005 23 327 0.0 1.0 0.00 0.01 0.00 46 1032.3
20181114230505 23 326 0.0 2.0 0.00 0.01 0.00 45 1032.3
20181114230005 23 325 1.0 4.0 0.00 0.01 0.00 44 1032.3
20181114225505 23 325 1.0 4.0 0.00 0.01 0.00 46 1031.7
20181114225005 24 326 1.0 6.0 0.00 0.01 0.00 45 1031.7
20181114224505 24 322 1.0 6.0 0.00 0.01 0.00 45 1031.7
20181114224004 24 317 1.0 4.0 0.00 0.01 0.00 43 1031.3
20181114223504 24 313 1.0 4.0 0.00 0.01 0.00 43 1031.3
20181114223005 24 312 1.0 7.0 0.00 0.01 0.00 42 1031.3
20181114222505 24 320 1.0 7.0 0.00 0.01 0.00 42 1031.1
20181114222005 25 332 1.0 2.0 0.00 0.01 0.00 41 1031.1
20181114221504 25 311 1.0 2.0 0.00 0.01 0.00 39 1031.1
20181114221004 25 300 1.0 4.0 0.00 0.01 0.00 38 1030.5
20181114220504 26 329 1.0 4.0 0.00 0.01 0.00 38 1030.5
20181114220005 26 321 1.0 6.0 0.00 0.01 0.00 38 1030.5
20181114215504 26 319 1.0 6.0 0.00 0.01 0.00 37 1029.7
20181114215004 26 316 2.0 8.0 0.00 0.01 0.00 34 1029.7
20181114214504 26 317 2.0 8.0 0.00 0.01 0.00 34 1029.7
20181114214004 26 331 1.0 4.0 0.00 0.01 0.00 37 1029.4
20181114213504 26 335 1.0 8.0 0.00 0.01 0.00 36 1029.4
20181114213004 26 327 1.0 8.0 0.00 0.01 0.00 33 1029.5
20181114212504 27 323 1.0 6.0 0.00 0.01 0.00 36 1029.1
20181114212004 27 330 1.0 4.0 0.00 0.01 0.00 36 1029.1
20181114211503 27 322 1.0 4.0 0.00 0.01 0.00 37 1029.1
20181114211004 27 320 1.0 4.0 0.00 0.01 0.00 39 1029.0
20181114210504 27 322 2.0 7.0 0.00 0.01 0.00 37 1029.0
20181114210006 27 322 2.0 7.0 0.00 0.01 0.00 32 1029.0
20181114205506 27 322 2.0 6.0 0.00 0.01 0.00 36 1028.6
20181114205005 28 323 2.0 7.0 0.00 0.01 0.00 34 1028.6
20181114204505 28 318 2.0 7.0 0.00 0.01 0.00 38 1028.6
20181114204006 28 315 2.0 6.0 0.00 0.01 0.00 39 1028.5
20181114203507 28 317 2.0 7.0 0.00 0.01 0.00 37 1028.5
20181114203005 28 312 2.0 7.0 0.00 0.01 0.00 36 1028.5
20181114202505 28 293 2.0 7.0 0.00 0.01 0.00 38 1028.0
20181114202005 28 297 2.0 7.0 0.00 0.02 0.00 35 1028.0
20181114201506 28 316 3.0 7.0 0.00 0.02 0.00 33 1028.0
20181114201005 28 323 3.0 7.0 0.00 0.02 0.00 32 1027.4
20181114200505 28 328 3.0 7.0 0.00 0.02 0.00 31 1027.4
20181114200005 28 332 3.0 8.0 0.00 0.02 0.00 33 1027.5
20181114195505 28 318 4.0 9.0 0.00 0.02 0.00 30 1027.1
20181114195005 29 309 4.0 9.0 0.00 0.02 0.00 30 1027.1
20181114194504 29 314 4.0 9.0 0.00 0.02 0.00 33 1027.1
20181114194004 29 314 4.0 9.0 0.00 0.02 0.00 37 1026.6
20181114193505 29 316 5.0 10.0 0.00 0.02 0.00 32 1026.6
20181114193005 29 313 4.0 10.0 0.00 0.02 0.00 36 1026.6
20181114192504 29 296 3.0 8.0 0.00 0.02 0.00 36 1026.4
20181114192004 29 310 3.0 9.0 0.00 0.02 0.00 36 1026.4
20181114191504 29 318 3.0 9.0 0.00 0.02 0.00 32 1026.4
20181114191005 29 300 2.0 7.0 0.00 0.02 0.00 33 1026.1
20181114190504 29 306 2.0 6.0 0.00 0.02 0.00 40 1026.1
20181114190004 29 316 3.0 8.0 0.00 0.02 0.00 37 1026.1
20181114185504 29 305 4.0 8.0 0.00 0.02 0.00 39 1025.8
20181114185004 29 282 3.0 9.0 0.00 0.02 0.00 37 1025.8
20181114184505 29 277 3.0 9.0 0.00 0.02 0.00 36 1025.8
20181114184004 29 302 3.0 7.0 0.00 0.02 0.00 41 1025.7
20181114183504 29 308 3.0 8.0 0.00 0.02 0.00 34 1025.7
20181114183004 29 304 3.0 8.0 0.00 0.02 0.00 38 1025.7
20181114182505 29 307 3.0 7.0 0.00 0.02 0.00 39 1025.6
20181114182003 29 305 3.0 8.0 0.00 0.02 0.00 40 1025.6
20181114181504 29 299 3.0 8.0 0.00 0.02 0.00 37 1025.6
20181114181004 29 295 4.0 10.0 0.00 0.02 0.00 38 1025.3
20181114180504 29 294 5.0 10.0 0.00 0.02 0.00 41 1025.3
20181114180004 29 288 4.0 9.0 0.00 0.02 0.00 41 1025.3
20181114175504 29 280 5.0 9.0 0.00 0.02 0.00 38 1025.3
20181114175005 29 282 5.0 9.0 0.00 0.02 0.00 38 1025.3
20181114174505 29 291 4.0 8.0 0.00 0.02 0.00 42 1025.3
20181114174004 29 295 4.0 8.0 0.00 0.02 0.00 40 1025.3
20181114173504 29 309 4.0 9.0 0.00 0.02 0.00 43 1025.3
20181114173005 29 304 4.0 9.0 0.00 0.03 0.00 37 1025.3
20181114172505 29 302 4.0 10.0 0.00 0.03 0.00 40 1025.1
20181114172004 29 304 4.0 10.0 0.00 0.03 0.00 42 1025.1
20181114171505 28 289 5.0 9.0 0.00 0.03 0.00 43 1025.1
20181114171005 28 294 4.0 9.0 0.00 0.03 0.00 40 1025.3
20181114170505 28 304 3.0 8.0 0.00 0.03 0.00 45 1025.3
20181114170005 28 290 3.0 8.0 0.00 0.04 0.00 46 1025.3
20181114165504 28 296 4.0 8.0 0.00 0.04 0.00 43 1025.2
20181114165005 28 298 4.0 8.0 0.00 0.04 0.00 45 1025.2
20181114164504 28 285 4.0 9.0 0.00 0.04 0.00 44 1025.2
20181114164005 28 287 4.0 9.0 0.00 0.04 0.00 42 1025.0
20181114163504 28 301 4.0 9.0 0.00 0.05 0.00 42 1025.0
20181114163005 28 307 5.0 10.0 0.00 0.05 0.00 45 1025.0
20181114162504 28 304 5.0 10.0 0.00 0.06 0.00 41 1025.0
20181114162005 28 307 4.0 9.0 0.00 0.06 0.00 44 1025.0
20181114161504 28 315 4.0 8.0 0.00 0.06 0.00 43 1025.0
20181114161005 28 300 4.0 8.0 0.00 0.07 0.00 42 1024.8
20181114160504 28 292 3.0 8.0 0.00 0.07 0.00 44 1024.8
20181114160004 28 302 3.0 8.0 0.00 0.07 0.00 46 1024.8
20181114155505 28 299 3.0 8.0 0.00 0.08 0.00 46 1025.0
20181114155004 28 305 3.0 8.0 0.00 0.08 0.00 46 1025.0
20181114154505 28 309 4.0 8.0 0.00 0.08 0.00 44 1025.0
20181114154013 28 302 3.0 7.0 0.00 0.09 0.00 47 1024.7
20181114153516 28 305 3.0 8.0 0.00 0.09 0.00 43 1024.7
20181114153026 28 320 4.0 8.0 0.00 0.09 0.00 42 1024.7
20181114152511 28 316 5.0 10.0 0.00 0.10 0.00 43 1024.6
20181114152018 28 308 5.0 10.0 0.00 0.10 0.00 44 1024.6
20181114151508 28 311 4.0 8.0 0.00 0.11 0.00 43 1024.6
20181114151013 28 319 5.0 15.0 0.00 0.11 0.00 44 1024.3
20181114150515 28 316 6.0 16.0 0.00 0.11 0.00 43 1024.3
20181114150032 28 312 5.0 16.0 0.00 0.12 0.00 41 1024.3
20181114145515 29 313 4.0 8.0 0.00 0.12 0.00 41 1023.8
20181114145017 29 309 4.0 9.0 0.00 0.12 0.00 45 1023.8
20181114144526 29 299 4.0 9.0 0.00 0.13 0.00 41 1023.8
20181114144012 29 283 3.0 9.0 0.00 0.13 0.00 45 1023.3
20181114143515 29 283 4.0 9.0 0.00 0.14 0.00 43 1023.3
20181114143020 28 288 3.0 9.0 0.00 0.14 0.00 43 1023.3
20181114142517 28 284 5.0 13.0 0.00 0.15 0.00 46 1023.2
20181114142005 28 279 5.0 13.0 0.00 0.15 0.00 38 1023.2
20181114141506 28 292 5.0 11.0 0.00 0.15 0.00 40 1023.2
20181114141005 28 295 6.0 11.0 0.00 0.15 0.00 40 1023.3
20181114140505 28 288 7.0 17.0 0.00 0.15 0.00 43 1023.3
20181114140005 28 295 7.0 17.0 0.00 0.16 0.00 38 1023.3
20181114135506 28 299 6.0 11.0 0.00 0.16 0.00 44 1023.0
20181114135005 28 288 6.0 13.0 0.00 0.17 0.00 44 1023.0
20181114134505 28 280 7.0 13.0 0.00 0.17 0.00 42 1023.0
20181114134005 28 285 6.0 13.0 0.00 0.18 0.00 43 1022.6
20181114133505 28 291 6.0 13.0 0.00 0.18 0.00 47 1022.6
20181114133004 28 283 7.0 15.0 0.00 0.19 0.00 44 1022.6
20181114132505 28 281 6.0 15.0 0.00 0.19 0.00 48 1022.7
20181114132004 27 276 6.0 15.0 0.00 0.20 0.00 47 1022.6
20181114131505 27 277 6.0 15.0 0.00 0.20 0.00 50 1022.6
20181114131005 27 277 6.0 16.0 0.00 0.20 0.00 52 1022.3
20181114130504 27 274 6.0 16.0 0.00 0.21 0.00 54 1022.3
20181114130004 26 277 3.0 9.0 0.00 0.21 0.00 60 1022.3
20181114125504 26 275 1.0 7.0 0.00 0.22 0.00 64 1022.1
20181114125004 26 270 1.0 2.0 0.00 0.22 0.00 63 1022.1
20181114124504 26 278 1.0 4.0 0.00 0.23 0.00 63 1022.1
20181114124004 26 289 1.0 4.0 0.00 0.23 0.00 62 1021.7
20181114123504 26 295 1.0 4.0 0.00 0.24 0.00 62 1021.7
20181114123004 26 298 1.0 4.0 0.00 0.24 0.00 63 1021.7
20181114122503 26 292 1.0 4.0 0.00 0.24 0.00 64 1021.4
20181114122004 26 283 1.0 4.0 0.00 0.25 0.00 64 1021.4
20181114121504 26 296 0.0 2.0 0.00 0.25 0.00 62 1021.4
20181114121004 26 314 0.0 2.0 0.00 0.26 0.00 62 1020.9
20181114120504 26 308 0.0 2.0 0.00 0.26 0.00 61 1020.9
20181114120006 26 253 0.0 2.0 0.00 0.27 0.00 63 1020.9
20181114115506 26 253 0.0 2.0 0.00 0.27 0.00 63 1020.4
20181114115005 26 0 0.0 0.0 0.00 0.27 0.00 63 1020.4
20181114114506 26 0 0.0 0.0 0.00 0.28 0.00 65 1020.4
20181114114006 26 0 0.0 0.0 0.00 0.29 0.00 65 1020.2
20181114113505 26 0 0.0 0.0 0.00 0.32 0.00 64 1020.2
20181114113006 27 0 0.0 0.0 0.00 0.32 0.00 65 1020.2
20181114112505 27 0 0.0 0.0 0.00 0.32 0.00 64 1020.0
20181114112015 27 0 0.0 0.0 0.00 0.32 0.00 64 1020.0
20181114111527 26 0 0.0 0.0 0.00 0.32 0.00 63 1020.0
20181114111017 27 0 0.0 0.0 0.00 0.32 0.00 63 1019.6
20181114110513 27 0 0.0 0.0 0.00 0.32 0.00 64 1019.6
20181114110024 27 0 0.0 0.0 0.00 0.32 0.00 65 1019.6
20181114105516 27 0 0.0 0.0 0.00 0.32 0.00 65 1019.5
20181114105014 27 253 0.0 1.0 0.00 0.33 0.00 65 1019.5
20181114104519 27 253 0.0 1.0 0.00 0.33 0.00 64 1019.5
20181114104016 27 253 0.0 1.0 0.00 0.33 0.00 64 1019.3
20181114103504 27 253 0.0 1.0 0.00 0.34 0.00 64 1019.3
20181114103005 27 253 0.0 1.0 0.00 0.34 0.00 65 1019.3
20181114102505 27 253 0.0 1.0 0.00 0.34 0.00 64 1019.1
20181114102005 27 254 0.0 2.0 0.00 0.35 0.00 64 1019.1
20181114101505 27 292 0.0 4.0 0.00 0.35 0.00 63 1019.1
20181114101004 27 320 0.0 4.0 0.00 0.36 0.00 65 1018.9
20181114100505 27 312 0.0 2.0 0.00 0.36 0.00 63 1018.9
20181114100005 27 281 0.0 1.0 0.00 0.36 0.00 63 1018.9
20181114095505 27 284 0.0 1.0 0.00 0.36 0.00 62 1018.6
20181114095005 27 287 0.0 1.0 0.00 0.37 0.00 62 1018.6
20181114094505 27 289 0.0 1.0 0.00 0.37 0.00 60 1018.6
20181114094004 27 289 1.0 4.0 0.00 0.38 0.00 62 1018.3
20181114093504 27 282 1.0 4.0 0.00 0.38 0.00 62 1018.3
20181114093004 27 270 1.0 4.0 0.00 0.38 0.00 64 1018.3
20181114092504 27 271 1.0 6.0 0.00 0.39 0.00 63 1017.9
20181114092004 27 270 1.0 6.0 0.00 0.39 0.00 62 1017.9
20181114091004 27 251 1.0 2.0 0.00 0.41 0.00 63 1017.7
20181114090504 27 244 1.0 2.0 0.00 0.41 0.00 63 1017.7
20181114090005 27 237 1.0 2.0 0.00 0.42 0.00 63 1017.5
20181114085505 27 230 0.0 2.0 0.00 0.43 0.00 62 1017.5
20181114085005 27 230 0.0 2.0 0.00 0.44 0.00 61 1017.5
20181114084505 27 245 0.0 2.0 0.00 0.44 0.00 61 1017.5
20181114084005 28 246 0.0 2.0 0.00 0.45 0.00 62 1017.4
20181114083505 28 247 0.0 2.0 0.00 0.46 0.00 61 1017.4
20181114083005 28 256 1.0 4.0 0.00 0.46 0.00 61 1017.4
20181114082506 28 263 1.0 4.0 0.00 0.47 0.00 60 1017.4
20181114082004 28 254 1.0 2.0 0.00 0.49 0.00 62 1017.4
20181114081505 28 235 1.0 2.0 0.00 0.50 0.00 61 1017.4
20181114081004 28 232 0.0 2.0 0.00 0.50 0.00 59 1017.2
20181114080505 28 258 0.0 4.0 0.00 0.51 0.00 61 1017.2
20181114080005 28 241 0.0 4.0 0.00 0.52 0.00 60 1017.2
20181114075505 28 221 0.0 4.0 0.00 0.54 0.00 62 1017.2
20181114075005 28 218 0.0 1.0 0.00 0.56 0.00 64 1017.2
20181114074504 28 218 0.0 2.0 0.00 0.59 0.00 63 1017.2
20181114074005 28 219 1.0 2.0 0.00 0.59 0.00 65 1017.0
20181114073504 28 214 1.0 2.0 0.00 0.60 0.00 64 1017.0
20181114073005 28 249 1.0 2.0 0.00 0.61 0.00 63 1017.0
20181114072504 29 282 1.0 4.0 0.00 0.63 0.00 65 1017.1
20181114072005 29 272 1.0 4.0 0.00 0.63 0.00 63 1017.1
20181114071505 29 264 1.0 4.0 0.00 0.64 0.00 64 1017.1
20181114071004 29 281 2.0 6.0 0.00 0.64 0.00 63 1017.1
20181114070505 29 292 2.0 6.0 0.00 0.64 0.00 62 1017.1
20181114070005 29 290 3.0 6.0 0.00 0.65 0.00 62 1017.1
20181114065504 29 283 2.0 6.0 0.00 0.65 0.00 61 1016.9
20181114065005 29 283 3.0 8.0 0.00 0.65 0.00 63 1016.9
20181114064504 29 288 3.0 8.0 0.00 0.65 0.00 62 1016.9
20181114064004 29 297 2.0 7.0 0.00 0.65 0.00 64 1017.0
20181114063504 30 288 2.0 7.0 0.00 0.65 0.00 63 1017.0
20181114063004 30 277 2.0 6.0 0.00 0.65 0.00 65 1017.0
20181114062504 30 287 3.0 9.0 0.00 0.65 0.00 63 1016.9
20181114062005 30 288 3.0 9.0 0.00 0.65 0.00 62 1016.9
20181114061504 30 296 2.0 9.0 0.00 0.65 0.00 64 1016.9
20181114061003 30 304 2.0 6.0 0.00 0.65 0.00 63 1016.4
20181114060504 30 289 2.0 9.0 0.00 0.65 0.00 65 1016.4
20181114060005 30 289 2.0 9.0 0.00 0.65 0.00 64 1016.4
20181114055506 30 297 1.0 4.0 0.00 0.65 0.00 66 1016.4
20181114055005 30 302 1.0 7.0 0.00 0.65 0.00 67 1016.4
20181114054506 30 298 2.0 8.0 0.00 0.65 0.00 67 1016.4
20181114054006 31 299 2.0 8.0 0.00 0.65 0.00 67 1015.9
20181114053506 31 297 2.0 7.0 0.00 0.65 0.00 69 1015.9
20181114053006 31 297 3.0 8.0 0.00 0.65 0.00 67 1015.9
20181114052505 31 298 3.0 9.0 0.00 0.65 0.00 67 1015.8
20181114052005 31 295 3.0 9.0 0.00 0.65 0.00 71 1015.8
20181114051505 31 294 3.0 8.0 0.00 0.65 0.00 70 1015.8
20181114051005 31 298 2.0 7.0 0.01 0.65 0.00 74 1015.4
20181114050505 32 298 3.0 7.0 0.01 0.65 0.00 75 1015.5
20181114050006 32 305 3.0 7.0 0.01 0.65 0.00 84 1015.4
20181114045504 32 309 4.0 9.0 0.01 0.65 0.65 84 1015.0
20181114045005 32 307 5.0 9.0 0.01 0.65 0.65 84 1015.1
20181114044505 32 282 3.0 4.0 0.01 0.65 0.65 84 1015.1
20181114044005 32 282 3.0 4.0 0.01 0.65 0.65 84 1014.4
20181114043505 32 282 3.0 4.0 0.01 0.65 0.65 84 1014.4
20181114043005 33 287 3.0 6.0 0.01 0.65 0.65 84 1014.5
20181114042505 33 300 2.0 6.0 0.01 0.65 0.65 84 1014.0
20181114042020 33 321 1.0 4.0 0.01 0.65 0.65 85 1014.0
20181114041523 33 294 2.0 6.0 0.01 0.65 0.65 85 1014.0
20181114041011 33 268 2.0 7.0 0.00 0.64 0.64 85 1013.8
20181114040515 33 273 1.0 7.0 0.00 0.64 0.64 85 1013.8
20181114040027 33 312 1.0 6.0 0.00 0.64 0.64 85 1013.8
20181114035513 33 311 1.0 6.0 0.00 0.64 0.64 85 1013.3
20181114035017 33 298 1.0 4.0 0.00 0.64 0.64 85 1013.3
20181114034516 33 302 2.0 6.0 0.00 0.64 0.64 85 1013.3
20181114034017 33 309 2.0 6.0 0.00 0.64 0.64 85 1013.0
20181114033512 33 299 1.0 4.0 0.00 0.64 0.64 85 1013.0
20181114033024 33 304 1.0 7.0 0.00 0.64 0.64 85 1013.0
20181114032504 34 312 1.0 7.0 0.00 0.64 0.64 85 1012.8
20181114032015 34 307 2.0 6.0 0.00 0.64 0.64 84 1012.8
20181114031523 34 312 2.0 6.0 0.00 0.64 0.64 84 1012.8
20181114031016 34 305 4.0 11.0 0.00 0.64 0.64 84 1012.6
20181114030503 35 304 5.0 14.0 0.00 0.64 0.64 84 1012.7
20181114030006 35 307 4.0 14.0 0.00 0.64 0.64 84 1012.6
20181114025507 35 310 4.0 8.0 0.00 0.64 0.64 85 1011.7
20181114025006 36 318 5.0 16.0 0.00 0.64 0.64 85 1011.8
20181114024505 36 320 3.0 16.0 0.00 0.64 0.64 86 1011.8
20181114024005 36 301 2.0 6.0 0.00 0.64 0.64 86 1011.0
20181114023506 35 286 2.0 6.0 0.00 0.64 0.64 87 1011.0
20181114023005 35 297 1.0 6.0 0.00 0.64 0.64 87 1011.0
20181114022506 35 317 1.0 6.0 0.00 0.64 0.64 87 1010.7
20181114022005 36 304 1.0 6.0 0.00 0.64 0.64 87 1010.7
20181114021506 36 273 0.0 4.0 0.00 0.64 0.64 87 1010.7
20181114021005 36 266 0.0 2.0 0.00 0.64 0.64 87 1010.5
20181114020505 36 168 0.0 1.0 0.00 0.64 0.64 87 1010.5
20181114020005 36 172 0.0 1.0 0.00 0.64 0.64 87 1010.4
20181114015505 36 173 0.0 1.0 0.00 0.64 0.64 88 1010.4
20181114015005 36 190 0.0 1.0 0.00 0.64 0.64 88 1010.4
20181114014505 36 297 0.0 1.0 0.00 0.64 0.64 88 1010.4
20181114014005 36 303 0.0 1.0 0.00 0.64 0.64 88 1010.3
20181114013505 36 304 0.0 2.0 0.00 0.64 0.64 88 1010.3
20181114013005 36 306 1.0 2.0 0.00 0.64 0.64 88 1010.3
20181114012505 36 302 1.0 2.0 0.00 0.64 0.64 88 1010.3
20181114012004 36 278 0.0 2.0 0.00 0.64 0.64 88 1010.3
20181114011505 36 276 0.0 2.0 0.00 0.64 0.64 88 1010.3
20181114011004 36 280 0.0 2.0 0.00 0.64 0.64 88 1010.2
20181114010505 36 284 0.0 2.0 0.00 0.64 0.64 88 1010.2
20181114010004 36 285 0.0 2.0 0.00 0.64 0.64 88 1010.2
20181114005505 36 287 0.0 2.0 0.00 0.64 0.64 88 1010.4
20181114005004 36 289 0.0 2.0 0.00 0.64 0.64 88 1010.4
20181114004504 36 289 0.0 2.0 0.00 0.64 0.64 88 1010.4
20181114004004 36 289 0.0 2.0 0.00 0.64 0.64 88 1010.2
20181114003504 37 289 0.0 2.0 0.00 0.64 0.64 88 1010.2
20181114003004 37 315 1.0 6.0 0.00 0.64 0.64 89 1010.2
20181114002504 37 331 1.0 6.0 0.00 0.64 0.64 89 1010.1
20181114002004 37 294 0.0 4.0 0.00 0.64 0.64 89 1010.1
20181114001504 37 254 1.0 4.0 0.00 0.64 0.64 89 1010.1
20181114001004 37 218 0.0 2.0 0.00 0.64 0.64 89 1010.1